GW4812 Weather Reports


Display with metric or nautical units.
time (UTC)temp
F
wind
direction
speed
MPH
gust
MPH
rain 1hr
in
rain 24hr
in
rain mn
in
humidity
%
barometer
mb
20260509172053 62 176 2.0 3.0 0.00 0.00 0.00 74 1012.0
20260509171552 63 257 1.0 2.0 0.00 0.00 0.00 72 1012.0
20260509171053 63 281 2.0 2.0 0.00 0.00 0.00 70 1012.0
20260509170553 63 215 1.0 2.0 0.00 0.00 0.00 70 1011.0
20260509170052 63 332 0.0 0.0 0.00 0.00 0.00 69 1011.0
20260509165553 63 176 0.0 0.0 0.00 0.00 0.00 70 1011.0
20260509165052 62 31 0.0 0.0 0.00 0.00 0.00 72 1011.0
20260509164553 62 298 1.0 2.0 0.00 0.00 0.00 70 1011.0
20260509164053 62 239 2.0 2.0 0.00 0.00 0.00 69 1011.0
20260509163552 62 95 1.0 2.0 0.00 0.00 0.00 70 1011.0
20260509163052 62 0 0.0 0.0 0.00 0.00 0.00 69 1011.0
20260509162553 62 193 1.0 2.0 0.00 0.00 0.00 68 1011.0
20260509162052 62 220 1.0 1.0 0.00 0.00 0.00 70 1012.0
20260509161553 62 175 1.0 2.0 0.00 0.00 0.00 70 1012.0
20260509161052 62 266 3.0 5.0 0.00 0.00 0.00 70 1012.0
20260509160553 62 0 0.0 0.0 0.00 0.00 0.00 71 1012.0
20260509160053 62 208 2.0 4.0 0.00 0.00 0.00 71 1012.0
20260509155552 62 269 1.0 2.0 0.00 0.00 0.00 71 1012.0
20260509155052 62 175 1.0 2.0 0.00 0.00 0.00 70 1012.0
20260509154553 61 214 2.0 2.0 0.00 0.00 0.00 71 1012.0
20260509154052 61 207 2.0 3.0 0.00 0.00 0.00 72 1012.0
20260509153552 61 175 2.0 3.0 0.00 0.00 0.00 71 1012.0
20260509153052 61 249 1.0 2.0 0.00 0.00 0.00 71 1012.0
20260509152553 61 249 1.0 1.0 0.00 0.00 0.00 71 1012.0
20260509152052 61 210 2.0 3.0 0.00 0.00 0.00 72 1012.0
20260509151552 60 191 2.0 3.0 0.00 0.00 0.00 72 1012.0
20260509151053 60 191 1.0 2.0 0.00 0.00 0.00 73 1012.0
20260509150554 60 252 1.0 2.0 0.00 0.00 0.00 72 1012.0
20260509150052 60 200 2.0 2.0 0.00 0.00 0.00 73 1012.0
20260509145552 60 280 1.0 2.0 0.00 0.00 0.00 73 1012.0
20260509145053 60 326 2.0 3.0 0.00 0.00 0.00 72 1012.0
20260509144552 60 320 1.0 3.0 0.00 0.00 0.00 73 1012.0
20260509144052 60 253 2.0 2.0 0.00 0.00 0.00 74 1012.0
20260509143553 60 198 1.0 2.0 0.00 0.00 0.00 73 1012.0
20260509143053 59 275 0.0 0.0 0.00 0.00 0.00 74 1012.0
20260509142553 59 225 1.0 2.0 0.00 0.00 0.00 73 1012.0
20260509142055 59 169 1.0 2.0 0.00 0.00 0.00 74 1012.0
20260509141552 59 290 3.0 4.0 0.00 0.00 0.00 74 1012.0
20260509141052 59 237 1.0 2.0 0.00 0.00 0.00 75 1012.0
20260509140554 59 223 1.0 2.0 0.00 0.00 0.00 76 1012.0
20260509140052 58 284 0.0 0.0 0.00 0.00 0.00 76 1012.0
20260509135553 58 211 1.0 1.0 0.00 0.00 0.00 77 1012.0
20260509135053 58 174 1.0 1.0 0.00 0.00 0.00 77 1012.0
20260509134552 58 167 2.0 3.0 0.00 0.00 0.00 77 1012.0
20260509134052 57 169 1.0 2.0 0.00 0.00 0.00 77 1012.0
20260509133552 56 204 0.0 0.0 0.00 0.00 0.00 79 1012.0
20260509133055 56 250 0.0 1.0 0.00 0.00 0.00 80 1012.0
20260509132552 55 209 0.0 1.0 0.00 0.00 0.00 80 1012.0
20260509132053 55 187 1.0 1.0 0.00 0.00 0.00 80 1012.0
20260509131552 55 0 0.0 0.0 0.00 0.00 0.00 82 1012.0
20260509131052 54 0 0.0 0.0 0.00 0.00 0.00 82 1012.0
20260509130554 54 240 0.0 1.0 0.00 0.00 0.00 81 1012.0
20260509130052 54 235 0.0 0.0 0.00 0.00 0.00 82 1012.0
20260509125553 53 0 0.0 0.0 0.00 0.00 0.00 82 1012.0
20260509125054 53 0 0.0 0.0 0.00 0.00 0.00 82 1012.0
20260509124553 53 276 1.0 2.0 0.00 0.00 0.00 82 1013.0
20260509124052 53 178 0.0 0.0 0.00 0.00 0.00 81 1013.0
20260509123552 53 267 0.0 1.0 0.00 0.00 0.00 82 1012.0
20260509123055 53 213 0.0 1.0 0.00 0.00 0.00 83 1012.0
20260509122552 52 284 1.0 1.0 0.00 0.00 0.00 81 1012.0
20260509122053 52 284 1.0 1.0 0.00 0.00 0.00 81 1013.0
20260509121552 52 261 1.0 1.0 0.00 0.00 0.00 82 1013.0
20260509121052 52 252 0.0 0.0 0.00 0.00 0.00 83 1012.0
20260509120552 52 0 0.0 0.0 0.00 0.00 0.00 83 1012.0
20260509120052 52 0 0.0 0.0 0.00 0.00 0.00 83 1012.0
20260509115553 51 0 0.0 0.0 0.00 0.00 0.00 83 1012.0
20260509115052 51 0 0.0 0.0 0.00 0.00 0.00 84 1013.0
20260509114552 51 197 0.0 0.0 0.00 0.00 0.00 83 1013.0
20260509114053 51 259 0.0 1.0 0.00 0.00 0.00 83 1013.0
20260509113553 51 253 1.0 2.0 0.00 0.00 0.00 83 1012.0
20260509113053 51 266 0.0 0.0 0.00 0.00 0.00 84 1012.0
20260509112552 51 0 0.0 0.0 0.00 0.00 0.00 84 1012.0
20260509112052 51 242 0.0 1.0 0.00 0.00 0.00 84 1013.0
20260509111552 51 260 0.0 1.0 0.00 0.00 0.00 84 1013.0
20260509111052 51 235 0.0 1.0 0.00 0.00 0.00 84 1013.0
20260509110552 50 218 2.0 2.0 0.00 0.00 0.00 84 1012.0
20260509110053 50 0 0.0 0.0 0.00 0.00 0.00 85 1012.0
20260509105553 50 0 0.0 0.0 0.00 0.00 0.00 84 1012.0
20260509105052 50 227 0.0 0.0 0.00 0.00 0.00 84 1013.0
20260509104552 50 249 0.0 1.0 0.00 0.00 0.00 84 1012.0
20260509104052 50 67 0.0 1.0 0.00 0.00 0.00 84 1012.0
20260509103552 50 0 0.0 0.0 0.00 0.00 0.00 84 1013.0
20260509103052 50 0 0.0 0.0 0.00 0.00 0.00 85 1013.0
20260509102553 50 268 1.0 2.0 0.00 0.00 0.00 85 1012.0
20260509102052 50 0 0.0 0.0 0.00 0.00 0.00 85 1012.0
20260509101554 50 266 1.0 2.0 0.00 0.00 0.00 85 1012.0
20260509101053 50 0 0.0 0.0 0.00 0.00 0.00 84 1012.0
20260509100553 50 188 0.0 0.0 0.00 0.00 0.00 84 1012.0
20260509100052 50 258 0.0 1.0 0.00 0.00 0.00 84 1012.0
20260509095552 50 250 0.0 1.0 0.00 0.00 0.00 84 1012.0
20260509095056 50 227 0.0 1.0 0.00 0.00 0.00 84 1012.0
20260509094552 50 260 0.0 0.0 0.00 0.00 0.00 84 1012.0
20260509094053 50 193 1.0 1.0 0.00 0.00 0.00 84 1012.0
20260509093553 50 0 0.0 0.0 0.00 0.00 0.00 84 1012.0
20260509093054 50 267 1.0 1.0 0.00 0.00 0.00 84 1012.0
20260509092553 50 250 0.0 1.0 0.00 0.00 0.00 84 1012.0
20260509092052 50 0 0.0 0.0 0.00 0.00 0.00 84 1012.0
20260509091552 50 0 0.0 0.0 0.00 0.00 0.00 84 1012.0
20260509091052 50 244 0.0 0.0 0.00 0.00 0.00 84 1012.0
20260509090553 50 86 0.0 0.0 0.00 0.00 0.00 84 1012.0
20260509090053 50 0 0.0 0.0 0.00 0.00 0.00 84 1012.0
20260509085552 50 169 0.0 1.0 0.00 0.00 0.00 84 1012.0
20260509085054 50 0 0.0 0.0 0.00 0.00 0.00 84 1012.0
20260509084553 50 187 0.0 1.0 0.00 0.00 0.00 84 1012.0
20260509084052 50 218 1.0 2.0 0.00 0.00 0.00 84 1012.0
20260509083553 50 0 0.0 0.0 0.00 0.00 0.00 84 1012.0
20260509083052 50 205 1.0 2.0 0.00 0.00 0.00 84 1012.0
20260509082552 50 261 0.0 0.0 0.00 0.00 0.00 84 1012.0
20260509082053 50 0 0.0 0.0 0.00 0.00 0.00 84 1013.0
20260509081553 50 242 0.0 1.0 0.00 0.00 0.00 84 1012.0
20260509081052 50 207 1.0 1.0 0.00 0.00 0.00 84 1012.0
20260509080553 51 247 2.0 2.0 0.00 0.00 0.00 83 1012.0
20260509080053 51 264 1.0 1.0 0.00 0.00 0.00 83 1012.0
20260509075552 51 216 0.0 1.0 0.00 0.00 0.00 82 1012.0
20260509075053 51 269 1.0 2.0 0.00 0.00 0.00 82 1012.0
20260509074552 51 0 0.0 0.0 0.00 0.00 0.00 82 1012.0
20260509074054 51 266 1.0 1.0 0.00 0.00 0.00 82 1012.0
20260509073554 51 200 0.0 0.0 0.00 0.00 0.00 82 1012.0
20260509073053 51 0 0.0 0.0 0.00 0.00 0.00 82 1012.0
20260509072553 51 0 0.0 0.0 0.00 0.00 0.00 83 1013.0
20260509072052 51 245 0.0 1.0 0.00 0.00 0.00 82 1013.0
20260509071552 51 0 0.0 0.0 0.00 0.00 0.00 82 1013.0
20260509071052 51 0 0.0 0.0 0.00 0.00 0.00 83 1013.0
20260509070553 51 241 0.0 1.0 0.00 0.00 0.00 83 1013.0
20260509070052 51 0 0.0 0.0 0.00 0.00 0.00 83 1012.0
20260509065552 51 251 0.0 1.0 0.00 0.00 0.00 83 1012.0
20260509065053 51 0 0.0 0.0 0.00 0.00 0.00 83 1013.0
20260509064553 51 0 0.0 0.0 0.00 0.00 0.00 83 1013.0
20260509064053 51 0 0.0 0.0 0.00 0.00 0.00 83 1012.0
20260509063552 51 245 0.0 0.0 0.00 0.00 0.00 82 1013.0
20260509063053 51 0 0.0 0.0 0.00 0.00 0.00 82 1013.0
20260509062552 51 182 0.0 0.0 0.00 0.00 0.00 82 1013.0
20260509062053 51 189 0.0 0.0 0.00 0.00 0.00 81 1012.0
20260509061553 51 261 0.0 0.0 0.00 0.00 0.00 81 1012.0
20260509061054 51 0 0.0 0.0 0.00 0.00 0.00 81 1012.0
20260509055552 51 0 0.0 0.0 0.00 0.00 0.00 81 1013.0
20260509055052 52 0 0.0 0.0 0.00 0.00 0.00 80 1013.0
20260509054553 52 0 0.0 0.0 0.00 0.00 0.00 81 1013.0
20260509054052 52 0 0.0 0.0 0.00 0.00 0.00 81 1013.0
20260509053553 52 267 0.0 1.0 0.00 0.00 0.00 80 1013.0
20260509053053 52 248 1.0 1.0 0.00 0.00 0.00 80 1013.0
20260509052553 52 0 0.0 0.0 0.00 0.00 0.00 80 1013.0
20260509052052 52 0 0.0 0.0 0.00 0.00 0.00 80 1013.0
20260509051552 52 259 0.0 1.0 0.00 0.00 0.00 80 1013.0
20260509051053 52 0 0.0 0.0 0.00 0.00 0.00 80 1013.0
20260509050552 52 257 0.0 1.0 0.00 0.00 0.00 80 1013.0
20260509050053 52 0 0.0 0.0 0.00 0.00 0.00 79 1013.0
20260509045553 52 243 0.0 1.0 0.00 0.00 0.00 79 1013.0
20260509045052 52 0 0.0 0.0 0.00 0.00 0.00 79 1013.0
20260509044552 52 175 0.0 0.0 0.00 0.00 0.00 78 1013.0
20260509044052 52 292 1.0 1.0 0.00 0.00 0.00 77 1013.0
20260509043552 52 262 0.0 1.0 0.00 0.00 0.00 77 1013.0
20260509043054 52 235 0.0 0.0 0.00 0.00 0.00 77 1013.0
20260509042552 52 269 0.0 1.0 0.00 0.00 0.00 76 1013.0
20260509042052 52 155 1.0 1.0 0.00 0.00 0.00 77 1013.0
20260509041552 52 292 0.0 1.0 0.00 0.00 0.00 77 1013.0
20260509041053 52 285 0.0 1.0 0.00 0.00 0.00 77 1013.0
20260509040553 52 0 0.0 0.0 0.00 0.00 0.00 76 1013.0
20260509040052 52 0 0.0 0.0 0.00 0.00 0.00 77 1013.0
20260509035553 53 0 0.0 0.0 0.00 0.00 0.02 77 1013.0
20260509035053 53 0 0.0 0.0 0.00 0.00 0.02 77 1013.0
20260509034557 53 0 0.0 0.0 0.00 0.00 0.02 76 1013.0
20260509034053 53 0 0.0 0.0 0.00 0.00 0.02 76 1013.0
20260509033552 53 0 0.0 0.0 0.00 0.00 0.02 76 1013.0
20260509033052 53 264 0.0 1.0 0.00 0.00 0.02 76 1013.0
20260509032553 53 269 0.0 1.0 0.00 0.00 0.02 75 1013.0
20260509032052 53 251 0.0 0.0 0.00 0.00 0.02 74 1013.0
20260509031552 53 303 0.0 1.0 0.00 0.00 0.02 74 1013.0
20260509031052 53 271 0.0 0.0 0.00 0.00 0.02 74 1013.0
20260509030554 53 181 0.0 0.0 0.00 0.00 0.02 74 1013.0
20260509030054 53 220 0.0 1.0 0.00 0.00 0.02 73 1013.0
20260509025552 53 236 0.0 1.0 0.00 0.00 0.02 73 1013.0
20260509025054 53 289 0.0 0.0 0.00 0.00 0.02 73 1013.0
20260509024552 54 166 0.0 0.0 0.00 0.00 0.02 72 1013.0
20260509024052 54 256 0.0 0.0 0.00 0.00 0.02 72 1013.0
20260509023553 54 194 0.0 1.0 0.00 0.00 0.02 72 1013.0
20260509023052 54 267 0.0 1.0 0.00 0.00 0.02 72 1013.0
20260509022552 54 189 0.0 0.0 0.00 0.00 0.02 71 1013.0
20260509022056 54 266 0.0 1.0 0.00 0.00 0.02 70 1013.0
20260509021553 54 253 0.0 1.0 0.00 0.00 0.02 70 1013.0
20260509021053 54 226 0.0 1.0 0.00 0.00 0.02 70 1013.0
20260509020554 54 39 0.0 1.0 0.00 0.00 0.02 70 1013.0
20260509020053 54 191 0.0 1.0 0.00 0.00 0.02 70 1013.0
20260509015557 54 246 0.0 0.0 0.00 0.00 0.02 69 1013.0
20260509015052 54 267 0.0 0.0 0.00 0.00 0.02 70 1013.0
20260509014553 54 0 0.0 0.0 0.00 0.00 0.02 69 1013.0
20260509014053 54 201 0.0 0.0 0.00 0.00 0.02 68 1013.0
20260509013553 55 202 0.0 1.0 0.00 0.00 0.02 68 1013.0
20260509013055 55 168 0.0 0.0 0.00 0.00 0.02 67 1013.0
20260509012552 55 250 0.0 1.0 0.00 0.00 0.02 67 1013.0
20260509012052 55 0 0.0 0.0 0.00 0.00 0.02 67 1013.0
20260509011553 55 248 0.0 0.0 0.00 0.00 0.02 66 1012.0
20260509011053 55 192 0.0 0.0 0.00 0.00 0.02 66 1012.0
20260509010552 55 279 0.0 0.0 0.00 0.00 0.02 66 1012.0
20260509010052 55 0 0.0 0.0 0.00 0.00 0.02 66 1012.0
20260509005552 55 0 0.0 0.0 0.00 0.00 0.02 66 1012.0
20260509005054 56 254 0.0 0.0 0.00 0.00 0.02 65 1012.0
20260509004552 56 202 0.0 1.0 0.00 0.00 0.02 65 1012.0
20260509004053 56 263 0.0 1.0 0.00 0.00 0.02 64 1012.0
20260509003552 56 246 0.0 1.0 0.00 0.00 0.02 64 1012.0
20260509003057 56 237 0.0 0.0 0.00 0.00 0.02 63 1012.0
20260509002552 56 193 0.0 1.0 0.00 0.00 0.02 63 1012.0
20260509002052 57 0 0.0 0.0 0.00 0.00 0.02 63 1012.0
20260509001553 57 0 0.0 0.0 0.00 0.00 0.02 63 1012.0
20260509001052 57 253 1.0 2.0 0.00 0.00 0.02 63 1012.0
20260509000552 57 0 0.0 0.0 0.00 0.00 0.02 63 1012.0
20260509000052 58 0 0.0 0.0 0.00 0.00 0.02 62 1012.0
20260508235553 58 243 0.0 0.0 0.00 0.00 0.02 60 1012.0
20260508235052 58 0 0.0 0.0 0.00 0.00 0.02 60 1012.0
20260508234552 58 0 0.0 0.0 0.00 0.00 0.02 60 1012.0
20260508234052 59 221 0.0 0.0 0.00 0.00 0.02 59 1012.0
20260508233554 59 0 0.0 0.0 0.00 0.00 0.02 57 1012.0
20260508233052 59 262 0.0 0.0 0.00 0.00 0.02 57 1012.0
20260508232552 59 0 0.0 0.0 0.00 0.00 0.02 57 1011.0
20260508232052 59 0 0.0 0.0 0.00 0.00 0.02 56 1011.0
20260508231553 60 279 0.0 1.0 0.00 0.00 0.02 56 1011.0
20260508231052 60 261 0.0 0.0 0.00 0.00 0.02 55 1011.0
20260508230552 60 295 0.0 1.0 0.00 0.00 0.02 55 1011.0
20260508230052 60 174 0.0 0.0 0.00 0.00 0.02 54 1011.0
20260508225553 60 0 0.0 0.0 0.00 0.00 0.02 53 1011.0
20260508225052 60 295 0.0 0.0 0.00 0.00 0.02 53 1011.0
20260508224553 61 0 0.0 0.0 0.00 0.00 0.02 52 1011.0
20260508224053 61 159 2.0 3.0 0.00 0.00 0.02 50 1011.0
20260508223553 61 87 0.0 0.0 0.00 0.00 0.02 49 1011.0
20260508223053 61 25 0.0 1.0 0.00 0.00 0.02 50 1011.0
20260508222552 62 274 0.0 1.0 0.00 0.00 0.02 50 1011.0
20260508222053 62 246 1.0 2.0 0.00 0.00 0.02 49 1011.0
20260508221552 62 256 0.0 1.0 0.00 0.00 0.02 51 1011.0
20260508221052 62 191 0.0 2.0 0.00 0.00 0.02 49 1011.0
20260508220110 62 326 0.0 1.0 0.00 0.00 0.02 49 1011.0
20260508215555 62 217 1.0 2.0 0.00 0.00 0.02 49 1011.0
20260508215052 62 192 0.0 1.0 0.00 0.00 0.02 51 1011.0
20260508214552 62 178 0.0 3.0 0.00 0.00 0.02 48 1011.0
20260508214052 62 0 0.0 0.0 0.00 0.00 0.02 48 1011.0
20260508213553 62 247 2.0 3.0 0.00 0.00 0.02 47 1011.0
20260508213052 61 181 0.0 2.0 0.00 0.00 0.02 48 1011.0
20260508212554 61 195 2.0 3.0 0.00 0.00 0.02 49 1011.0
20260508212053 61 219 2.0 4.0 0.00 0.00 0.02 48 1011.0
20260508211553 62 239 2.0 3.0 0.00 0.00 0.02 49 1011.0
20260508211053 62 61 0.0 1.0 0.00 0.00 0.02 48 1011.0
20260508210552 62 191 1.0 2.0 0.00 0.00 0.02 46 1011.0
20260508210052 62 64 1.0 2.0 0.00 0.00 0.02 46 1011.0
20260508205553 62 45 1.0 2.0 0.00 0.00 0.02 47 1011.0
20260508205052 62 231 2.0 4.0 0.00 0.00 0.02 47 1011.0
20260508204553 61 37 2.0 3.0 0.00 0.00 0.02 48 1011.0
20260508204053 60 209 2.0 5.0 0.00 0.00 0.02 48 1011.0
20260508203553 60 347 1.0 3.0 0.00 0.00 0.02 51 1012.0
20260508203052 60 300 0.0 1.0 0.00 0.00 0.02 49 1012.0
20260508202553 60 136 0.0 2.0 0.00 0.00 0.02 48 1012.0
20260508202053 60 55 1.0 2.0 0.00 0.00 0.02 48 1012.0
20260508201552 60 274 1.0 2.0 0.00 0.00 0.02 48 1011.0
20260508201055 60 209 2.0 4.0 0.00 0.00 0.02 47 1012.0
20260508200552 60 299 1.0 2.0 0.00 0.00 0.02 47 1012.0
20260508200052 60 258 2.0 6.0 0.00 0.00 0.02 46 1012.0
20260508195552 61 347 3.0 5.0 0.00 0.00 0.02 45 1011.0
20260508195053 61 236 0.0 1.0 0.00 0.00 0.02 45 1011.0
20260508194553 61 194 2.0 6.0 0.00 0.00 0.02 45 1011.0
20260508194053 61 223 2.0 4.0 0.00 0.00 0.02 44 1011.0
20260508193553 62 272 1.0 2.0 0.00 0.00 0.02 44 1011.0
20260508193052 62 238 2.0 6.0 0.00 0.00 0.02 43 1011.0
20260508192553 62 196 2.0 4.0 0.00 0.00 0.02 42 1011.0
20260508192053 62 180 4.0 6.0 0.00 0.00 0.02 41 1011.0
20260508191552 61 210 3.0 5.0 0.00 0.00 0.02 43 1011.0
20260508191052 61 179 2.0 5.0 0.00 0.00 0.02 42 1011.0
20260508190553 61 46 2.0 4.0 0.00 0.00 0.02 42 1011.0
20260508190053 62 226 3.0 6.0 0.00 0.00 0.02 42 1011.0
20260508185552 62 186 4.0 6.0 0.00 0.00 0.02 41 1011.0
20260508185053 62 144 2.0 3.0 0.00 0.00 0.02 43 1011.0
20260508184552 62 242 3.0 5.0 0.00 0.00 0.02 42 1011.0
20260508184052 61 335 3.0 7.0 0.00 0.00 0.02 45 1011.0
20260508183553 61 264 2.0 4.0 0.00 0.00 0.02 44 1011.0
20260508183053 61 282 2.0 4.0 0.00 0.00 0.02 44 1012.0
20260508182552 61 136 0.0 2.0 0.00 0.00 0.02 44 1011.0
20260508182053 61 271 2.0 4.0 0.00 0.00 0.02 43 1011.0
20260508181553 61 220 2.0 4.0 0.00 0.00 0.02 45 1011.0
20260508181052 61 50 3.0 4.0 0.00 0.00 0.02 44 1011.0
20260508180552 61 235 2.0 4.0 0.00 0.00 0.02 45 1011.0
20260508180053 61 4 1.0 2.0 0.00 0.00 0.02 48 1012.0
20260508175552 60 37 1.0 3.0 0.00 0.00 0.02 46 1012.0
20260508175052 59 301 1.0 2.0 0.00 0.00 0.02 47 1012.0
20260508174553 59 242 2.0 3.0 0.00 0.00 0.02 45 1012.0
20260508174052 59 233 0.0 2.0 0.00 0.00 0.02 48 1012.0
20260508173552 59 125 2.0 2.0 0.00 0.00 0.02 47 1012.0
20260508173053 59 290 1.0 3.0 0.00 0.00 0.02 45 1012.0
20260508172552 59 233 1.0 4.0 0.00 0.00 0.02 46 1012.0